STARLINK-33807, 63518

Orbit data source: Space-Track

STARLINK-33807, 63518 is a payload satellite owned by SpaceX/Seattle (US) in LEO that was launched on Mon, 07 Apr 2025 UTC via an FALCON 9 launch vehicle from the Air Force Western Test Range (AFWTR). Payload-class satellites include a variety of spacecraft equipped with specific instruments for various scientific and technological missions. These include communications satellites like Starlink; space stations such as the ISS; scientific satellites like the Hubble; Earth observation satellites from companies like Planet Labs, Umbra, and HawkEye 360; GPS; miniature CubeSats for education and research; and military/defense satellites.

Loading next visibility...
Identifier
63518, 2025-071AB
Orbit
LEO
Country
Flag of USUS
Related business
Manufacturer
SpaceX/Seattle
Mission
Operational Commercial Communications
Bus & Motor
STARLINK V2MO, Unknown motor
Mass
575 kg wet, ~530 kg dry
Launch date (UTC)
2025-04-07 (1 year ago)
Launch vehicle
FALCON 9
Launch site
Air Force Western Test Range (AFWTR)
Object type
Payload
Rocket body
Debris
Shape & HBR
Box + 2 Pan, 17.7 m
Radar Cross Section
36.964 m², Large (>1 m²)

Expand to show TLE details & history
Last TLE update: 1 day ago

TLE from 1 day ago
0 STARLINK-33807
1 63518U 25071AB  26174.82049230  .00019736  00000-0  59364-3 0  9992
2 63518  53.1604   4.4562 0000745 101.9242 258.1845 15.34404102 69057
Epoch: 2026-06-23T19:41Z
TLE epoch observation values (Epoch: 2026-06-23T19:41:30.534Z)
Latitude
0.00003°
Longitude
157.09243°
Altitude
463.697 km
Speed
7.636 km/s
True Right ascension
00h 17m 49s
True Declination
0° 00' 00"
Sunlit
Object was in daylight at epoch
Visualization orbit readout
Latitude
Unknown
Longitude
Unknown
Altitude
Unknown
Speed
Unknown
Apparent Right ascension
Unknown
Apparent Declination
Unknown
Sunlit
N/A
Visualization observer readout
Local Sidereal Time
08:04:25
Azimuth
Unknown
Elevation
Unknown
Doppler factor
Unknown
Orbital elements
Apogee altitude
463.458 km
Perigee altitude
462.438 km
Semi-major axis
6,841.085 km
Eccentricity
0.00007
Inclination
53.1604°
RAAN
4.4562°
Arg. of periapsis
101.9242°
True anomaly
258.17614°
Mean anomaly
258.1845°
Eccentric anomaly
258.18032°
Mean motion
3.8358 °/min
Orbital period
93.85 mins
BSTAR
0.00059364
Loading maneuver chart data...
Computing Atmospheric mass density...
Loading historical data...
Loading historical data...
Loading historical data...
Loading historical data...
Loading historical data...
Loading historical data...
Loading historical data...

Documentation

Showing up to 5 results
|